| time (UTC) | temp F | wind direction | speed MPH | gust MPH | rain 1hr in | rain 24hr in | rain mn in | humidity % | barometer mb |
| 20260506231406 | 67 | 208 | 0.0 | 0.0 | 0.00 | 0.06 | 0.06 | 79 | 1007.2 |
| 20260506230903 | 67 | 209 | 0.0 | 0.0 | 0.00 | 0.06 | 0.06 | 79 | 1007.1 |
| 20260506230359 | 68 | 238 | 1.0 | 1.0 | 0.00 | 0.06 | 0.06 | 79 | 1006.8 |
| 20260506225855 | 67 | 221 | 1.0 | 1.0 | 0.00 | 0.06 | 0.06 | 80 | 1006.9 |
| 20260506225353 | 67 | 210 | 0.0 | 0.0 | 0.00 | 0.06 | 0.06 | 79 | 1007.0 |
| 20260506224850 | 67 | 212 | 1.0 | 1.0 | 0.00 | 0.06 | 0.06 | 80 | 1007.0 |
| 20260506224347 | 67 | 209 | 2.0 | 2.0 | 0.00 | 0.06 | 0.06 | 80 | 1006.6 |
| 20260506223843 | 67 | 210 | 0.0 | 1.0 | 0.00 | 0.06 | 0.06 | 80 | 1006.7 |
| 20260506223338 | 67 | 201 | 1.0 | 1.0 | 0.00 | 0.06 | 0.06 | 80 | 1006.8 |
| 20260506222836 | 67 | 223 | 0.0 | 0.0 | 0.00 | 0.06 | 0.06 | 80 | 1006.9 |
| 20260506222332 | 66 | 211 | 0.0 | 0.0 | 0.00 | 0.06 | 0.06 | 80 | 1006.9 |
| 20260506221830 | 66 | 254 | 2.0 | 2.0 | 0.00 | 0.06 | 0.06 | 80 | 1006.9 |
| 20260506221327 | 66 | 191 | 0.0 | 1.0 | 0.00 | 0.06 | 0.06 | 81 | 1006.9 |
| 20260506220825 | 66 | 231 | 1.0 | 1.0 | 0.00 | 0.06 | 0.06 | 80 | 1006.9 |
| 20260506220320 | 66 | 272 | 3.0 | 3.0 | 0.00 | 0.06 | 0.06 | 80 | 1006.8 |
| 20260506215817 | 66 | 230 | 0.0 | 1.0 | 0.00 | 0.06 | 0.06 | 81 | 1006.5 |
| 20260506215313 | 66 | 225 | 1.0 | 1.0 | 0.00 | 0.06 | 0.06 | 81 | 1006.7 |
| 20260506214809 | 66 | 193 | 0.0 | 0.0 | 0.00 | 0.06 | 0.06 | 81 | 1006.9 |
| 20260506214306 | 66 | 175 | 1.0 | 1.0 | 0.00 | 0.06 | 0.06 | 81 | 1006.7 |
| 20260506213804 | 66 | 180 | 1.0 | 2.0 | 0.00 | 0.06 | 0.06 | 81 | 1006.5 |
| 20260506213301 | 66 | 271 | 2.0 | 2.0 | 0.00 | 0.06 | 0.06 | 81 | 1006.8 |
| 20260506212758 | 66 | 255 | 1.0 | 2.0 | 0.00 | 0.06 | 0.06 | 81 | 1006.5 |
| 20260506212254 | 66 | 192 | 0.0 | 0.0 | 0.00 | 0.06 | 0.06 | 81 | 1006.7 |
| 20260506211749 | 66 | 212 | 3.0 | 5.0 | 0.00 | 0.06 | 0.06 | 81 | 1006.7 |
| 20260506211246 | 66 | 131 | 1.0 | 2.0 | 0.00 | 0.06 | 0.06 | 81 | 1006.7 |
| 20260506210743 | 66 | 345 | 4.0 | 6.0 | 0.00 | 0.06 | 0.06 | 81 | 1006.5 |
| 20260506210239 | 66 | 194 | 3.0 | 3.0 | 0.00 | 0.06 | 0.06 | 81 | 1006.4 |
| 20260506205736 | 66 | 211 | 0.0 | 1.0 | 0.00 | 0.06 | 0.06 | 81 | 1006.5 |
| 20260506205232 | 66 | 199 | 0.0 | 1.0 | 0.00 | 0.06 | 0.06 | 81 | 1006.3 |
| 20260506204729 | 66 | 212 | 3.0 | 3.0 | 0.00 | 0.06 | 0.06 | 81 | 1006.4 |
| 20260506204227 | 66 | 196 | 4.0 | 5.0 | 0.00 | 0.06 | 0.06 | 82 | 1006.2 |
| 20260506203724 | 66 | 266 | 3.0 | 3.0 | 0.00 | 0.06 | 0.06 | 83 | 1006.1 |
| 20260506203221 | 66 | 203 | 1.0 | 2.0 | 0.00 | 0.06 | 0.06 | 84 | 1006.3 |
| 20260506202719 | 65 | 186 | 1.0 | 1.0 | 0.00 | 0.06 | 0.06 | 84 | 1006.2 |
| 20260506202215 | 65 | 169 | 1.0 | 2.0 | 0.00 | 0.06 | 0.06 | 85 | 1006.3 |
| 20260506201712 | 65 | 196 | 0.0 | 0.0 | 0.00 | 0.06 | 0.06 | 86 | 1006.3 |
| 20260506201208 | 64 | 269 | 4.0 | 8.0 | 0.00 | 0.06 | 0.06 | 86 | 1006.1 |
| 20260506200700 | 64 | 202 | 0.0 | 0.0 | 0.00 | 0.06 | 0.06 | 87 | 1006.3 |
| 20260506200157 | 64 | 217 | 1.0 | 2.0 | 0.00 | 0.06 | 0.06 | 87 | 1006.5 |
| 20260506195653 | 64 | 253 | 2.0 | 2.0 | 0.00 | 0.06 | 0.06 | 87 | 1006.5 |
| 20260506195149 | 63 | 205 | 0.0 | 0.0 | 0.00 | 0.06 | 0.06 | 87 | 1006.4 |
| 20260506194647 | 63 | 305 | 3.0 | 5.0 | 0.00 | 0.06 | 0.06 | 87 | 1006.6 |
| 20260506194143 | 64 | 274 | 4.0 | 7.0 | 0.00 | 0.06 | 0.06 | 87 | 1006.8 |
| 20260506193641 | 64 | 182 | 1.0 | 1.0 | 0.00 | 0.06 | 0.06 | 87 | 1006.9 |
| 20260506193138 | 64 | 200 | 0.0 | 1.0 | 0.00 | 0.06 | 0.06 | 86 | 1007.0 |
| 20260506192634 | 64 | 304 | 9.0 | 13.0 | 0.00 | 0.06 | 0.06 | 85 | 1007.1 |
| 20260506192130 | 63 | 226 | 2.0 | 3.0 | 0.00 | 0.06 | 0.06 | 87 | 1007.0 |
| 20260506191628 | 63 | 271 | 2.0 | 3.0 | 0.00 | 0.06 | 0.06 | 89 | 1007.0 |
| 20260506191123 | 63 | 217 | 0.0 | 1.0 | 0.00 | 0.06 | 0.06 | 89 | 1007.0 |
| 20260506190621 | 63 | 236 | 1.0 | 2.0 | 0.00 | 0.06 | 0.06 | 90 | 1007.3 |
| 20260506190118 | 63 | 251 | 0.0 | 1.0 | 0.00 | 0.06 | 0.06 | 90 | 1007.0 |
| 20260506185615 | 63 | 169 | 2.0 | 3.0 | 0.00 | 0.06 | 0.06 | 90 | 1007.2 |
| 20260506185111 | 63 | 208 | 1.0 | 1.0 | 0.00 | 0.06 | 0.06 | 89 | 1007.1 |
| 20260506184609 | 63 | 225 | 1.0 | 1.0 | 0.00 | 0.06 | 0.06 | 89 | 1007.3 |
| 20260506184106 | 63 | 233 | 2.0 | 2.0 | 0.00 | 0.06 | 0.06 | 89 | 1007.2 |
| 20260506183603 | 63 | 220 | 3.0 | 5.0 | 0.00 | 0.06 | 0.06 | 88 | 1007.3 |
| 20260506183058 | 63 | 210 | 1.0 | 1.0 | 0.00 | 0.06 | 0.06 | 88 | 1007.2 |
| 20260506182556 | 63 | 183 | 5.0 | 9.0 | 0.00 | 0.06 | 0.06 | 87 | 1007.3 |
| 20260506182053 | 64 | 201 | 2.0 | 2.0 | 0.00 | 0.06 | 0.06 | 86 | 1007.3 |
| 20260506181551 | 64 | 203 | 2.0 | 3.0 | 0.00 | 0.06 | 0.06 | 84 | 1007.3 |
| 20260506181047 | 65 | 260 | 5.0 | 8.0 | 0.00 | 0.06 | 0.06 | 82 | 1007.4 |
| 20260506180544 | 65 | 173 | 3.0 | 5.0 | 0.00 | 0.06 | 0.06 | 81 | 1007.2 |
| 20260506180041 | 65 | 249 | 1.0 | 2.0 | 0.00 | 0.06 | 0.06 | 83 | 1007.5 |
| 20260506175537 | 65 | 274 | 1.0 | 2.0 | 0.00 | 0.06 | 0.06 | 86 | 1007.5 |
| 20260506175033 | 65 | 211 | 0.0 | 0.0 | 0.00 | 0.06 | 0.06 | 86 | 1007.5 |
| 20260506174532 | 65 | 262 | 0.0 | 0.0 | 0.00 | 0.06 | 0.06 | 86 | 1007.5 |
| 20260506174028 | 65 | 209 | 0.0 | 1.0 | 0.00 | 0.06 | 0.06 | 86 | 1007.4 |
| 20260506173526 | 65 | 234 | 2.0 | 2.0 | 0.00 | 0.06 | 0.06 | 86 | 1007.5 |
| 20260506173022 | 65 | 198 | 0.0 | 1.0 | 0.00 | 0.06 | 0.06 | 85 | 1007.2 |
| 20260506172520 | 65 | 198 | 1.0 | 1.0 | 0.00 | 0.06 | 0.06 | 86 | 1007.3 |
| 20260506172016 | 65 | 203 | 2.0 | 2.0 | 0.00 | 0.06 | 0.06 | 86 | 1007.2 |
| 20260506171513 | 64 | 168 | 0.0 | 1.0 | 0.05 | 0.06 | 0.06 | 88 | 1007.4 |
| 20260506171010 | 64 | 183 | 2.0 | 2.0 | 0.05 | 0.06 | 0.06 | 88 | 1007.4 |
| 20260506170507 | 64 | 190 | 3.0 | 3.0 | 0.00 | 0.05 | 0.05 | 88 | 1007.6 |
| 20260506170000 | 64 | 192 | 2.0 | 2.0 | 0.00 | 0.05 | 0.05 | 88 | 1007.4 |
| 20260506165458 | 64 | 199 | 0.0 | 1.0 | 0.00 | 0.05 | 0.05 | 88 | 1007.9 |
| 20260506164954 | 64 | 182 | 3.0 | 5.0 | 0.07 | 0.05 | 0.05 | 87 | 1007.9 |
| 20260506164451 | 64 | 193 | 0.0 | 0.0 | 0.07 | 0.05 | 0.05 | 88 | 1008.3 |
| 20260506163949 | 64 | 185 | 1.0 | 2.0 | 0.00 | 0.04 | 0.04 | 87 | 1008.6 |
| 20260506163443 | 64 | 198 | 0.0 | 1.0 | 0.05 | 0.04 | 0.04 | 87 | 1008.6 |
| 20260506162938 | 64 | 185 | 1.0 | 2.0 | 0.05 | 0.04 | 0.04 | 87 | 1008.8 |
| 20260506162436 | 64 | 203 | 0.0 | 0.0 | 0.00 | 0.03 | 0.03 | 86 | 1008.6 |
| 20260506161933 | 64 | 174 | 1.0 | 1.0 | 0.07 | 0.03 | 0.03 | 85 | 1009.0 |
| 20260506161431 | 64 | 208 | 0.0 | 0.0 | 0.14 | 0.03 | 0.03 | 84 | 1008.7 |
| 20260506160923 | 64 | 174 | 1.0 | 1.0 | 0.07 | 0.02 | 0.02 | 83 | 1009.0 |
| 20260506160420 | 65 | 227 | 1.0 | 2.0 | 0.12 | 0.02 | 0.02 | 81 | 1009.2 |
| 20260506155918 | 66 | 197 | 0.0 | 0.0 | 0.05 | 0.01 | 0.01 | 79 | 1008.9 |
| 20260506155414 | 67 | 223 | 1.0 | 1.0 | 0.00 | 0.00 | 0.00 | 77 | 1008.9 |
| 20260506153537 | 68 | 204 | 1.0 | 2.0 | 0.00 | 0.00 | 0.00 | 69 | 1008.7 |
| 20260506153034 | 69 | 211 | 2.0 | 2.0 | 0.00 | 0.00 | 0.00 | 68 | 1009.0 |
| 20260506152531 | 69 | 198 | 3.0 | 5.0 | 0.00 | 0.00 | 0.00 | 66 | 1008.9 |
| 20260506152029 | 69 | 287 | 2.0 | 3.0 | 0.00 | 0.00 | 0.00 | 67 | 1008.8 |
| 20260506151527 | 69 | 252 | 1.0 | 2.0 | 0.00 | 0.00 | 0.00 | 67 | 1008.7 |
| 20260506151024 | 69 | 197 | 0.0 | 1.0 | 0.00 | 0.00 | 0.00 | 67 | 1008.8 |
| 20260506150520 | 69 | 147 | 2.0 | 3.0 | 0.00 | 0.00 | 0.00 | 65 | 1009.2 |
| 20260506150017 | 69 | 317 | 2.0 | 2.0 | 0.00 | 0.00 | 0.00 | 65 | 1008.9 |
| 20260506145514 | 69 | 142 | 1.0 | 2.0 | 0.00 | 0.00 | 0.00 | 65 | 1009.1 |
| 20260506145011 | 69 | 253 | 3.0 | 5.0 | 0.00 | 0.00 | 0.00 | 64 | 1009.1 |
| 20260506144508 | 69 | 151 | 3.0 | 5.0 | 0.00 | 0.00 | 0.00 | 65 | 1009.1 |
| 20260506144005 | 70 | 217 | 1.0 | 1.0 | 0.00 | 0.00 | 0.00 | 65 | 1009.1 |
| 20260506143503 | 70 | 194 | 1.0 | 2.0 | 0.00 | 0.00 | 0.00 | 64 | 1009.1 |
| 20260506143001 | 70 | 280 | 5.0 | 7.0 | 0.00 | 0.00 | 0.00 | 64 | 1009.2 |
| 20260506142458 | 70 | 254 | 6.0 | 8.0 | 0.00 | 0.00 | 0.00 | 64 | 1009.1 |
| 20260506141956 | 70 | 242 | 2.0 | 2.0 | 0.00 | 0.00 | 0.00 | 65 | 1008.8 |
| 20260506141454 | 70 | 220 | 1.0 | 1.0 | 0.00 | 0.00 | 0.00 | 66 | 1008.8 |
| 20260506140952 | 69 | 208 | 1.0 | 2.0 | 0.00 | 0.00 | 0.00 | 66 | 1008.9 |
| 20260506140449 | 69 | 239 | 2.0 | 2.0 | 0.00 | 0.00 | 0.00 | 66 | 1008.8 |
| 20260506135945 | 69 | 312 | 1.0 | 2.0 | 0.00 | 0.00 | 0.00 | 66 | 1008.7 |
| 20260506135443 | 69 | 227 | 5.0 | 7.0 | 0.00 | 0.00 | 0.00 | 65 | 1008.9 |
| 20260506134938 | 69 | 196 | 2.0 | 3.0 | 0.00 | 0.00 | 0.00 | 66 | 1009.1 |
| 20260506134435 | 69 | 260 | 4.0 | 7.0 | 0.00 | 0.00 | 0.00 | 65 | 1008.6 |
| 20260506133932 | 69 | 187 | 2.0 | 2.0 | 0.00 | 0.00 | 0.00 | 66 | 1008.9 |
| 20260506133429 | 69 | 266 | 1.0 | 2.0 | 0.00 | 0.00 | 0.00 | 66 | 1009.3 |
| 20260506132926 | 69 | 218 | 3.0 | 5.0 | 0.00 | 0.00 | 0.00 | 66 | 1009.1 |
| 20260506132423 | 69 | 158 | 6.0 | 7.0 | 0.00 | 0.00 | 0.00 | 65 | 1009.1 |
| 20260506131920 | 69 | 199 | 3.0 | 6.0 | 0.00 | 0.00 | 0.00 | 66 | 1009.4 |
| 20260506131417 | 69 | 197 | 1.0 | 1.0 | 0.00 | 0.00 | 0.00 | 67 | 1009.1 |
| 20260506130914 | 68 | 197 | 4.0 | 5.0 | 0.00 | 0.00 | 0.00 | 68 | 1009.0 |
| 20260506130410 | 68 | 220 | 3.0 | 3.0 | 0.00 | 0.00 | 0.00 | 68 | 1009.1 |
| 20260506125908 | 68 | 159 | 1.0 | 2.0 | 0.00 | 0.00 | 0.00 | 68 | 1009.0 |
| 20260506125406 | 68 | 207 | 3.0 | 3.0 | 0.00 | 0.00 | 0.00 | 68 | 1009.0 |
| 20260506124904 | 68 | 214 | 3.0 | 5.0 | 0.00 | 0.00 | 0.00 | 68 | 1009.0 |
| 20260506124401 | 68 | 198 | 3.0 | 3.0 | 0.00 | 0.00 | 0.00 | 68 | 1008.9 |
| 20260506123859 | 68 | 239 | 6.0 | 7.0 | 0.00 | 0.00 | 0.00 | 68 | 1008.8 |
| 20260506123357 | 67 | 231 | 3.0 | 3.0 | 0.00 | 0.00 | 0.00 | 69 | 1009.0 |
| 20260506122854 | 68 | 244 | 1.0 | 1.0 | 0.00 | 0.00 | 0.00 | 69 | 1009.0 |
| 20260506122350 | 67 | 210 | 0.0 | 1.0 | 0.00 | 0.00 | 0.00 | 70 | 1009.0 |
| 20260506121849 | 66 | 278 | 4.0 | 7.0 | 0.00 | 0.00 | 0.00 | 70 | 1009.0 |
| 20260506121346 | 66 | 230 | 2.0 | 3.0 | 0.00 | 0.00 | 0.00 | 71 | 1009.1 |
| 20260506120843 | 66 | 196 | 3.0 | 3.0 | 0.00 | 0.00 | 0.00 | 71 | 1009.3 |
| 20260506120340 | 66 | 219 | 1.0 | 1.0 | 0.00 | 0.00 | 0.00 | 71 | 1009.0 |
| 20260506115837 | 66 | 216 | 8.0 | 10.0 | 0.00 | 0.00 | 0.00 | 71 | 1009.3 |
| 20260506115336 | 66 | 198 | 2.0 | 3.0 | 0.00 | 0.00 | 0.00 | 72 | 1009.2 |
| 20260506114833 | 66 | 209 | 2.0 | 2.0 | 0.00 | 0.00 | 0.00 | 72 | 1009.5 |
| 20260506114331 | 66 | 206 | 1.0 | 2.0 | 0.00 | 0.00 | 0.00 | 73 | 1009.4 |
| 20260506113830 | 66 | 295 | 1.0 | 1.0 | 0.00 | 0.00 | 0.00 | 72 | 1009.3 |
| 20260506113326 | 66 | 175 | 3.0 | 5.0 | 0.00 | 0.00 | 0.00 | 72 | 1009.1 |
| 20260506112823 | 66 | 192 | 2.0 | 2.0 | 0.00 | 0.00 | 0.00 | 72 | 1009.0 |
| 20260506112320 | 65 | 289 | 1.0 | 3.0 | 0.00 | 0.00 | 0.00 | 73 | 1009.1 |
| 20260506111818 | 65 | 320 | 3.0 | 5.0 | 0.00 | 0.00 | 0.00 | 75 | 1009.4 |
| 20260506111316 | 65 | 209 | 2.0 | 3.0 | 0.00 | 0.00 | 0.00 | 75 | 1009.4 |
| 20260506110813 | 64 | 208 | 0.0 | 1.0 | 0.00 | 0.00 | 0.00 | 75 | 1009.4 |
| 20260506110310 | 64 | 76 | 2.0 | 3.0 | 0.00 | 0.00 | 0.00 | 75 | 1009.3 |
| 20260506105806 | 64 | 284 | 2.0 | 2.0 | 0.00 | 0.00 | 0.00 | 76 | 1009.2 |
| 20260506105305 | 64 | 187 | 2.0 | 2.0 | 0.00 | 0.00 | 0.00 | 76 | 1009.1 |
| 20260506104801 | 64 | 194 | 1.0 | 2.0 | 0.00 | 0.00 | 0.00 | 76 | 1008.9 |
| 20260506104258 | 64 | 233 | 1.0 | 2.0 | 0.00 | 0.00 | 0.00 | 77 | 1009.0 |
| 20260506103756 | 63 | 166 | 3.0 | 5.0 | 0.00 | 0.00 | 0.00 | 78 | 1009.0 |
| 20260506103253 | 63 | 196 | 1.0 | 1.0 | 0.00 | 0.00 | 0.00 | 78 | 1009.0 |
| 20260506102750 | 63 | 198 | 1.0 | 2.0 | 0.00 | 0.00 | 0.00 | 78 | 1009.2 |
| 20260506102248 | 63 | 211 | 0.0 | 1.0 | 0.00 | 0.00 | 0.00 | 78 | 1009.4 |
| 20260506101745 | 64 | 218 | 2.0 | 2.0 | 0.00 | 0.00 | 0.00 | 77 | 1009.2 |
| 20260506101241 | 64 | 206 | 1.0 | 2.0 | 0.00 | 0.00 | 0.00 | 77 | 1009.3 |
| 20260506100739 | 64 | 219 | 2.0 | 3.0 | 0.00 | 0.00 | 0.00 | 78 | 1009.2 |
| 20260506100237 | 63 | 191 | 3.0 | 5.0 | 0.00 | 0.00 | 0.00 | 78 | 1008.9 |
| 20260506095736 | 63 | 202 | 0.0 | 0.0 | 0.00 | 0.00 | 0.00 | 78 | 1008.9 |
| 20260506095232 | 64 | 231 | 4.0 | 6.0 | 0.00 | 0.00 | 0.00 | 77 | 1008.8 |
| 20260506094729 | 64 | 217 | 2.0 | 2.0 | 0.00 | 0.00 | 0.00 | 77 | 1009.0 |
| 20260506094227 | 64 | 204 | 3.0 | 3.0 | 0.00 | 0.00 | 0.00 | 77 | 1009.0 |
| 20260506093726 | 64 | 239 | 1.0 | 1.0 | 0.00 | 0.00 | 0.00 | 77 | 1008.8 |
| 20260506093222 | 64 | 222 | 1.0 | 1.0 | 0.00 | 0.00 | 0.00 | 77 | 1009.0 |
| 20260506092720 | 64 | 185 | 1.0 | 2.0 | 0.00 | 0.00 | 0.00 | 77 | 1008.9 |
| 20260506092218 | 64 | 196 | 3.0 | 3.0 | 0.00 | 0.00 | 0.00 | 77 | 1009.2 |
| 20260506091715 | 64 | 161 | 1.0 | 1.0 | 0.00 | 0.00 | 0.00 | 77 | 1009.1 |
| 20260506091212 | 64 | 205 | 1.0 | 2.0 | 0.00 | 0.00 | 0.00 | 76 | 1009.2 |
| 20260506090710 | 64 | 205 | 3.0 | 3.0 | 0.00 | 0.00 | 0.00 | 76 | 1009.1 |
| 20260506090206 | 64 | 224 | 1.0 | 1.0 | 0.00 | 0.00 | 0.00 | 76 | 1008.9 |
| 20260506085704 | 64 | 212 | 4.0 | 5.0 | 0.00 | 0.00 | 0.00 | 76 | 1009.0 |
| 20260506085159 | 65 | 191 | 3.0 | 5.0 | 0.00 | 0.00 | 0.00 | 76 | 1009.0 |
| 20260506084656 | 65 | 250 | 1.0 | 1.0 | 0.00 | 0.00 | 0.00 | 76 | 1009.2 |
| 20260506084153 | 65 | 202 | 2.0 | 2.0 | 0.00 | 0.00 | 0.00 | 76 | 1009.2 |
| 20260506083650 | 65 | 204 | 1.0 | 2.0 | 0.00 | 0.00 | 0.00 | 76 | 1009.3 |
| 20260506083148 | 65 | 190 | 4.0 | 5.0 | 0.00 | 0.00 | 0.00 | 75 | 1009.1 |
| 20260506082644 | 65 | 191 | 3.0 | 8.0 | 0.00 | 0.00 | 0.00 | 75 | 1009.2 |
| 20260506082139 | 65 | 210 | 2.0 | 2.0 | 0.00 | 0.00 | 0.00 | 75 | 1009.1 |
| 20260506081638 | 65 | 297 | 3.0 | 3.0 | 0.00 | 0.00 | 0.00 | 75 | 1009.3 |
| 20260506081135 | 65 | 264 | 2.0 | 2.0 | 0.00 | 0.00 | 0.00 | 75 | 1009.2 |
| 20260506080633 | 65 | 206 | 0.0 | 0.0 | 0.00 | 0.00 | 0.00 | 75 | 1009.3 |
| 20260506080129 | 65 | 158 | 1.0 | 2.0 | 0.00 | 0.00 | 0.00 | 75 | 1009.3 |
| 20260506073113 | 66 | 186 | 4.0 | 6.0 | 0.00 | 0.00 | 0.00 | 74 | 1009.3 |
| 20260506072609 | 66 | 191 | 2.0 | 2.0 | 0.00 | 0.00 | 0.00 | 74 | 1009.5 |
| 20260506072108 | 66 | 223 | 2.0 | 2.0 | 0.00 | 0.00 | 0.00 | 74 | 1009.4 |
| 20260506071605 | 66 | 173 | 3.0 | 5.0 | 0.00 | 0.00 | 0.00 | 73 | 1009.4 |
| 20260506071102 | 66 | 199 | 2.0 | 3.0 | 0.00 | 0.00 | 0.00 | 73 | 1009.4 |
| 20260506070559 | 66 | 187 | 0.0 | 1.0 | 0.00 | 0.00 | 0.00 | 73 | 1009.3 |
| 20260506062034 | 66 | 189 | 1.0 | 1.0 | 0.00 | 0.00 | 0.00 | 72 | 1009.7 |
| 20260506061529 | 66 | 195 | 0.0 | 0.0 | 0.00 | 0.00 | 0.00 | 72 | 1009.7 |
| 20260506061027 | 66 | 170 | 1.0 | 2.0 | 0.00 | 0.00 | 0.00 | 71 | 1009.7 |
| 20260506060526 | 66 | 214 | 2.0 | 3.0 | 0.00 | 0.00 | 0.00 | 72 | 1009.7 |
| 20260506050954 | 65 | 189 | 1.0 | 2.0 | 0.00 | 0.00 | 0.00 | 70 | 1010.2 |
| 20260506050452 | 66 | 209 | 0.0 | 1.0 | 0.00 | 0.00 | 0.00 | 70 | 1010.2 |
| 20260506044942 | 66 | 197 | 3.0 | 3.0 | 0.00 | 0.00 | 0.00 | 68 | 1010.5 |
| 20260506044441 | 66 | 189 | 2.0 | 2.0 | 0.00 | 0.00 | 0.00 | 68 | 1010.1 |
| 20260506043937 | 66 | 184 | 1.0 | 1.0 | 0.00 | 0.00 | 0.00 | 68 | 1010.0 |
| 20260506043434 | 67 | 221 | 1.0 | 1.0 | 0.00 | 0.00 | 0.00 | 67 | 1010.2 |
| 20260506042932 | 67 | 195 | 1.0 | 1.0 | 0.00 | 0.00 | 0.00 | 67 | 1010.3 |
| 20260506042431 | 67 | 222 | 1.0 | 1.0 | 0.00 | 0.00 | 0.00 | 67 | 1010.1 |
| 20260506041929 | 67 | 169 | 2.0 | 2.0 | 0.00 | 0.00 | 0.00 | 67 | 1010.2 |
| 20260506041427 | 67 | 185 | 1.0 | 1.0 | 0.00 | 0.00 | 0.00 | 66 | 1010.5 |
| 20260506040923 | 67 | 144 | 1.0 | 2.0 | 0.00 | 0.00 | 0.00 | 66 | 1010.2 |
| 20260506040421 | 67 | 168 | 1.0 | 1.0 | 0.00 | 0.00 | 0.00 | 65 | 1010.1 |
| 20260506035917 | 67 | 194 | 0.0 | 1.0 | 0.00 | 0.00 | 0.00 | 65 | 1010.4 |
| 20260506035415 | 67 | 251 | 1.0 | 2.0 | 0.00 | 0.00 | 0.00 | 64 | 1010.1 |
| 20260506034911 | 67 | 194 | 1.0 | 2.0 | 0.00 | 0.00 | 0.00 | 64 | 1010.2 |
| 20260506034408 | 68 | 171 | 2.0 | 2.0 | 0.00 | 0.00 | 0.00 | 64 | 1010.3 |
| 20260506033905 | 68 | 203 | 3.0 | 6.0 | 0.00 | 0.00 | 0.00 | 63 | 1010.2 |
| 20260506033403 | 68 | 215 | 4.0 | 5.0 | 0.00 | 0.00 | 0.00 | 63 | 1010.3 |
| 20260506032859 | 68 | 180 | 2.0 | 3.0 | 0.00 | 0.00 | 0.00 | 63 | 1010.1 |
| 20260506032356 | 68 | 203 | 1.0 | 2.0 | 0.00 | 0.00 | 0.00 | 63 | 1010.4 |
| 20260506031853 | 68 | 191 | 2.0 | 2.0 | 0.00 | 0.00 | 0.00 | 62 | 1010.4 |
| 20260506031350 | 68 | 195 | 4.0 | 6.0 | 0.00 | 0.00 | 0.00 | 61 | 1010.2 |
| 20260506030848 | 68 | 249 | 3.0 | 3.0 | 0.00 | 0.00 | 0.00 | 61 | 1010.3 |
| 20260506030346 | 68 | 211 | 3.0 | 3.0 | 0.00 | 0.00 | 0.00 | 61 | 1010.0 |
| 20260506025842 | 68 | 192 | 1.0 | 2.0 | 0.00 | 0.00 | 0.00 | 61 | 1010.0 |
| 20260506025338 | 69 | 202 | 1.0 | 2.0 | 0.00 | 0.00 | 0.00 | 60 | 1009.8 |
| 20260506024836 | 69 | 192 | 3.0 | 3.0 | 0.00 | 0.00 | 0.00 | 60 | 1009.9 |
| 20260506024333 | 69 | 224 | 0.0 | 1.0 | 0.00 | 0.00 | 0.00 | 60 | 1009.9 |
| 20260506023829 | 69 | 222 | 3.0 | 3.0 | 0.00 | 0.00 | 0.00 | 59 | 1010.1 |
| 20260506023326 | 69 | 264 | 3.0 | 3.0 | 0.00 | 0.00 | 0.00 | 59 | 1010.0 |
| 20260506022822 | 69 | 152 | 3.0 | 7.0 | 0.00 | 0.00 | 0.00 | 59 | 1010.0 |
| 20260506022320 | 69 | 212 | 3.0 | 5.0 | 0.00 | 0.00 | 0.00 | 59 | 1010.2 |
| 20260506021818 | 69 | 213 | 3.0 | 7.0 | 0.00 | 0.00 | 0.00 | 59 | 1009.8 |
| 20260506021315 | 70 | 207 | 1.0 | 1.0 | 0.00 | 0.00 | 0.00 | 58 | 1010.2 |
| 20260506020811 | 70 | 194 | 1.0 | 2.0 | 0.00 | 0.00 | 0.00 | 58 | 1010.3 |
| 20260506020309 | 70 | 172 | 3.0 | 3.0 | 0.00 | 0.00 | 0.00 | 58 | 1010.0 |
| 20260506015807 | 70 | 197 | 1.0 | 2.0 | 0.00 | 0.00 | 0.00 | 58 | 1010.1 |
| 20260506015306 | 70 | 197 | 2.0 | 2.0 | 0.00 | 0.00 | 0.00 | 58 | 1009.9 |
| 20260506014801 | 70 | 200 | 2.0 | 3.0 | 0.00 | 0.00 | 0.00 | 57 | 1009.9 |
| 20260506014258 | 71 | 231 | 2.0 | 2.0 | 0.00 | 0.00 | 0.00 | 56 | 1009.7 |
| 20260506013754 | 71 | 219 | 0.0 | 0.0 | 0.00 | 0.00 | 0.00 | 56 | 1009.8 |
| 20260506013252 | 72 | 217 | 1.0 | 1.0 | 0.00 | 0.00 | 0.00 | 55 | 1009.7 |
| 20260506012748 | 72 | 213 | 7.0 | 10.0 | 0.00 | 0.00 | 0.00 | 53 | 1009.6 |
| 20260506012245 | 73 | 187 | 1.0 | 1.0 | 0.00 | 0.00 | 0.00 | 51 | 1009.7 |
| 20260506011742 | 73 | 182 | 0.0 | 0.0 | 0.00 | 0.00 | 0.00 | 50 | 1009.3 |
| 20260506011238 | 73 | 235 | 4.0 | 6.0 | 0.00 | 0.00 | 0.00 | 50 | 1009.4 |
| 20260506010737 | 74 | 219 | 4.0 | 6.0 | 0.00 | 0.00 | 0.00 | 48 | 1009.0 |
| 20260506010234 | 74 | 145 | 4.0 | 7.0 | 0.00 | 0.00 | 0.00 | 47 | 1009.3 |
| 20260506005731 | 74 | 218 | 2.0 | 3.0 | 0.00 | 0.00 | 0.00 | 47 | 1009.3 |
| 20260506005228 | 75 | 53 | 3.0 | 7.0 | 0.00 | 0.00 | 0.00 | 46 | 1009.3 |
| 20260506004724 | 75 | 210 | 3.0 | 3.0 | 0.00 | 0.00 | 0.00 | 45 | 1009.0 |
| 20260506004222 | 75 | 203 | 2.0 | 2.0 | 0.00 | 0.00 | 0.00 | 44 | 1008.8 |
| 20260506003717 | 76 | 206 | 3.0 | 3.0 | 0.00 | 0.00 | 0.00 | 43 | 1008.8 |
| 20260506003214 | 76 | 120 | 5.0 | 8.0 | 0.00 | 0.00 | 0.00 | 43 | 1009.0 |
| 20260506002710 | 76 | 138 | 3.0 | 6.0 | 0.00 | 0.00 | 0.00 | 42 | 1008.7 |
| 20260506002206 | 76 | 232 | 4.0 | 7.0 | 0.00 | 0.00 | 0.00 | 41 | 1009.0 |
| 20260506001702 | 76 | 217 | 3.0 | 3.0 | 0.00 | 0.00 | 0.00 | 41 | 1008.6 |
| 20260506001200 | 76 | 169 | 3.0 | 3.0 | 0.00 | 0.00 | 0.00 | 41 | 1008.6 |
| 20260506000656 | 77 | 196 | 2.0 | 2.0 | 0.00 | 0.00 | 0.00 | 41 | 1008.6 |
| 20260506000154 | 77 | 164 | 1.0 | 2.0 | 0.00 | 0.00 | 0.00 | 40 | 1008.7 |
| 20260505235652 | 77 | 195 | 2.0 | 2.0 | 0.00 | 0.00 | 0.00 | 41 | 1008.8 |
| 20260505235149 | 77 | 208 | 0.0 | 0.0 | 0.00 | 0.00 | 0.00 | 41 | 1008.8 |
| 20260505234645 | 78 | 164 | 1.0 | 1.0 | 0.00 | 0.00 | 0.00 | 40 | 1008.5 |
| 20260505234142 | 78 | 189 | 0.0 | 1.0 | 0.00 | 0.00 | 0.00 | 40 | 1008.6 |
| 20260505233639 | 78 | 198 | 1.0 | 2.0 | 0.00 | 0.00 | 0.00 | 39 | 1008.5 |
| 20260505233137 | 78 | 321 | 7.0 | 9.0 | 0.00 | 0.00 | 0.00 | 38 | 1008.3 |
| 20260505232635 | 79 | 203 | 2.0 | 3.0 | 0.00 | 0.00 | 0.00 | 38 | 1008.2 |
| 20260505232132 | 79 | 253 | 5.0 | 8.0 | 0.00 | 0.00 | 0.00 | 36 | 1008.3 |
| 20260505231629 | 79 | 255 | 4.0 | 6.0 | 0.00 | 0.00 | 0.00 | 35 | 1008.1 |